Weather History for KTYR - July, 2013

Change the Weather History Date:

Friday, July 5, 2013

  Actual Average Record
Temperature  
Mean Temperature 82 °F 82 °F  
Max Temperature 95 °F 91 °F 104 °F (1909)
Min Temperature 68 °F 73 °F 54 °F (1968)
Degree Days  
Heating Degree Days 0 0  
Month to date heating degree days 0 0  
Since 1 June heating degree days 0 0  
Since 1 July heating degree days 0 0  
Cooling Degree Days 17 17  
Month to date cooling degree days 71 85  
Year to date cooling degree days 980 887  
Since 1 June cooling degree days 583 518  
Growing Degree Days 31 (Base 50)    
Moisture  
Dew Point 59 °F    
Average Humidity 51    
Maximum Humidity 73    
Minimum Humidity 28    
Precipitation  
Precipitation 0.00 in 0.12 in 2.61 in (2007)
Month to date precipitation T 0.61  
Year to date precipitation 16.01 24.37  
Snow  
Snow 0.00 in - - ()
Month to date snowfall 0.0  
Since 1 June snowfall 0.0  
Since 1 July snowfall 0.0  
Snow Depth 0.00 in    
Sea Level Pressure  
Sea Level Pressure 29.96 in    
Wind  
Wind Speed 6 mph (SE)    
Max Wind Speed 16 mph    
Max Gust Speed 21 mph    
Visibility 10 miles    
Events      
T = Trace of Precipitation, MM = Missing Value Source: NWS Daily Summary

Daily Weather History Graph

Daily Weather History Graph

Search for Another Location

Airport or City:

Trip Planner

Search our weather history database for the weather conditions in past years. The results will help you decide how hot, cold, wet, or windy it might be!

Date:

Astronomy

Jul. 05, 2013 Rise Set
Actual Time 6:20 AM CDT 8:32 PM CDT
Civil Twilight 5:51 AM CDT 9:00 PM CDT
Nautical Twilight 5:17 AM CDT 9:34 PM CDT
Astronomical Twilight 4:40 AM CDT 10:11 PM CDT
Moon 4:17 AM CDT (7/5) 6:30 PM CDT (7/5)
Length of Visible Light 15h 08m
Length of Day
14h 12m
Waning Crescent, 6% of the Moon is Illuminated
Jul 5
Waning Crescent
Jul 8
New
Jul 15
First Quarter
Jul 22
Full
Jul 29
Last Quarter

Hourly Weather History & Observations

Time (CDT) Temp. Heat Index Dew Point Humidity Pressure Visibility Wind Dir Wind Speed Gust Speed Precip Events Conditions
12:53 AM 72.0 °F - 60.1 °F 66% 29.98 in 10.0 mi SSE 5.8 mph - N/A   Clear
1:53 AM 70.0 °F - 60.1 °F 71% 29.97 in 10.0 mi South 5.8 mph - N/A   Clear
2:53 AM 69.1 °F - 60.1 °F 73% 29.97 in 10.0 mi Calm Calm - N/A   Clear
3:53 AM 69.1 °F - 60.1 °F 73% 29.96 in 10.0 mi Calm Calm - N/A   Clear
4:53 AM 69.1 °F - 60.1 °F 73% 29.97 in 10.0 mi Calm Calm - N/A   Clear
5:53 AM 69.1 °F - 60.1 °F 73% 29.98 in 10.0 mi SSE 4.6 mph - N/A   Clear
6:53 AM 70.0 °F - 61.0 °F 73% 29.99 in 10.0 mi SSE 3.5 mph - N/A   Clear
7:53 AM 75.9 °F - 61.0 °F 60% 30.01 in 10.0 mi SE 3.5 mph - N/A   Clear
8:53 AM 80.1 °F 81.1 °F 61.0 °F 52% 30.02 in 10.0 mi SSE 9.2 mph - N/A   Clear
9:53 AM 84.0 °F 84.5 °F 62.1 °F 47% 30.02 in 10.0 mi South 4.6 mph - N/A   Clear
10:53 AM 86.0 °F 86.3 °F 62.1 °F 44% 30.01 in 10.0 mi SW 3.5 mph - N/A   Clear
11:53 AM 88.0 °F 87.9 °F 61.0 °F 40% 29.99 in 10.0 mi Variable 3.5 mph - N/A   Clear
12:07 PM 89.6 °F 89.5 °F 60.8 °F 38% 30.01 in 10.0 mi Calm Calm - N/A   Partly Cloudy
12:53 PM 89.1 °F 88.2 °F 59.0 °F 36% 29.99 in 10.0 mi SSW 5.8 mph - N/A   Clear
1:53 PM 91.0 °F 90.0 °F 57.9 °F 33% 29.97 in 10.0 mi Variable 3.5 mph - N/A   Mostly Cloudy
2:53 PM 91.9 °F 90.6 °F 57.0 °F 31% 29.96 in 10.0 mi East 10.4 mph - N/A   Partly Cloudy
3:53 PM 93.9 °F 92.0 °F 55.0 °F 27% 29.93 in 10.0 mi East 8.1 mph - N/A   Partly Cloudy
4:25 PM 93.2 °F 90.8 °F 53.6 °F 26% 29.94 in 10.0 mi Variable 4.6 mph - N/A   Scattered Clouds
4:53 PM 93.0 °F 91.7 °F 57.0 °F 30% 29.91 in 10.0 mi SE 12.7 mph 18.4 mph N/A   Scattered Clouds
5:53 PM 91.9 °F 89.5 °F 54.0 °F 27% 29.89 in 10.0 mi ESE 6.9 mph - N/A   Clear
6:53 PM 91.0 °F 89.2 °F 55.9 °F 30% 29.90 in 10.0 mi ESE 11.5 mph - N/A   Partly Cloudy
7:53 PM 89.1 °F 88.0 °F 57.9 °F 35% 29.90 in 10.0 mi ESE 9.2 mph - N/A   Clear
8:53 PM 86.0 °F 85.0 °F 57.9 °F 38% 29.91 in 10.0 mi ESE 8.1 mph - N/A   Clear
9:53 PM 84.0 °F 83.3 °F 57.0 °F 40% 29.92 in 10.0 mi ESE 9.2 mph - N/A   Clear
10:53 PM 82.0 °F 81.4 °F 55.0 °F 39% 29.94 in 10.0 mi ESE 9.2 mph - N/A   Clear
11:53 PM 80.1 °F 80.1 °F 55.0 °F 42% 29.95 in 10.0 mi ESE 6.9 mph - N/A   Clear